Location: Unspecified
(51.0950°N, 12.9690°E)
Time: 19:18:35
(UTC+00:00)

BUGSAT 1 - Pass Details

Date: 18 May 2025
Orbit: 512 x 554 km, 98.1° (Epoch: 16 June)

Event Time Altitude Azimuth Distance (km) Brightness Sun altitude
Exits shadow 21:26:22 - 221° (SW) 1,942 ? -15.9°
Reaches altitude 10° 21:27:03 10° 228° (SW) 1,751 ? -16.0°
Maximum altitude 21:29:28 16° 269° (W) 1,397 ? -16.1°
Drops below altitude 10° 21:31:54 10° 309° (NW) 1,752 ? -16.3°
Sets 21:34:40 0° 331° (NNW) 2,642 ? -16.4°
